Year,Month,Day,Hour,Minute,Value (Times are PST for temperature in C)
2010,10,16,00,00,4.30
2010,10,16,00,01,4.30
2010,10,16,00,02,4.30
2010,10,16,00,03,4.30
2010,10,16,00,04,4.30
2010,10,16,00,05,4.30
2010,10,16,00,06,4.30
2010,10,16,00,07,4.20
2010,10,16,00,08,4.20
2010,10,16,00,09,4.20
2010,10,16,00,10,4.20
2010,10,16,00,11,4.10
2010,10,16,00,12,4.10
2010,10,16,00,13,4.10
2010,10,16,00,14,4.10
2010,10,16,00,15,4.10
2010,10,16,00,16,4.10
2010,10,16,00,17,4.10
2010,10,16,00,18,4.00
2010,10,16,00,19,4.00
2010,10,16,00,20,4.00
2010,10,16,00,21,3.90
2010,10,16,00,22,3.90
2010,10,16,00,23,3.90
2010,10,16,00,24,3.80
2010,10,16,00,25,3.80
2010,10,16,00,26,3.70
2010,10,16,00,27,3.70
2010,10,16,00,28,3.70
2010,10,16,00,29,3.70
2010,10,16,00,30,3.70
2010,10,16,00,31,3.70
2010,10,16,00,32,3.70
2010,10,16,00,33,3.60
2010,10,16,00,34,3.60
2010,10,16,00,35,3.60
2010,10,16,00,36,3.60
2010,10,16,00,37,3.60
2010,10,16,00,38,3.60
2010,10,16,00,39,3.60
2010,10,16,00,40,3.60
2010,10,16,00,41,3.60
2010,10,16,00,42,3.60
2010,10,16,00,43,3.60
2010,10,16,00,44,3.60
2010,10,16,00,45,3.60
2010,10,16,00,46,3.60
2010,10,16,00,47,3.50
2010,10,16,00,48,3.50
2010,10,16,00,49,3.50
2010,10,16,00,50,3.50
2010,10,16,00,51,3.50
2010,10,16,00,52,3.50
2010,10,16,00,53,3.50
2010,10,16,00,54,3.50
2010,10,16,00,55,3.50
2010,10,16,00,56,3.50
2010,10,16,00,57,3.50
2010,10,16,00,58,3.50
2010,10,16,00,59,3.40
2010,10,16,01,00,3.40
2010,10,16,01,01,3.40
2010,10,16,01,02,3.40
2010,10,16,01,03,3.40
2010,10,16,01,04,3.40
2010,10,16,01,05,3.40
2010,10,16,01,06,3.40
2010,10,16,01,07,3.40
2010,10,16,01,08,3.40
2010,10,16,01,09,3.30
2010,10,16,01,10,3.30
2010,10,16,01,11,3.30
2010,10,16,01,12,3.30
2010,10,16,01,13,3.30
2010,10,16,01,14,3.20
2010,10,16,01,15,3.20
2010,10,16,01,16,3.20
2010,10,16,01,17,3.20
2010,10,16,01,18,3.20
2010,10,16,01,19,3.20
2010,10,16,01,20,3.20
2010,10,16,01,21,3.20
2010,10,16,01,22,3.20
2010,10,16,01,23,3.20
2010,10,16,01,24,3.20
2010,10,16,01,25,3.10
2010,10,16,01,26,3.10
2010,10,16,01,27,3.10
2010,10,16,01,28,3.10
2010,10,16,01,29,3.10
2010,10,16,01,30,3.10
2010,10,16,01,31,3.10
2010,10,16,01,32,3.10
2010,10,16,01,33,3.10
2010,10,16,01,34,3.10
2010,10,16,01,35,3.00
2010,10,16,01,36,3.00
2010,10,16,01,37,3.00
2010,10,16,01,38,3.00
2010,10,16,01,39,3.10
2010,10,16,01,40,3.10
2010,10,16,01,41,3.10
2010,10,16,01,42,3.10
2010,10,16,01,43,3.10
2010,10,16,01,44,3.10
2010,10,16,01,45,3.10
2010,10,16,01,46,3.10
2010,10,16,01,47,3.10
2010,10,16,01,48,3.10
2010,10,16,01,49,3.10
2010,10,16,01,50,3.10
2010,10,16,01,51,3.10
2010,10,16,01,52,3.10
2010,10,16,01,53,3.10
2010,10,16,01,54,3.10
2010,10,16,01,55,3.10
2010,10,16,01,56,3.10
2010,10,16,01,57,3.10
2010,10,16,01,58,3.10
2010,10,16,01,59,3.10
2010,10,16,02,00,3.10
2010,10,16,02,01,3.10
2010,10,16,02,02,3.10
2010,10,16,02,03,3.10
2010,10,16,02,04,3.10
2010,10,16,02,05,3.10
2010,10,16,02,06,3.10
2010,10,16,02,07,3.10
2010,10,16,02,08,3.10
2010,10,16,02,09,3.10
2010,10,16,02,10,3.00
2010,10,16,02,11,3.00
2010,10,16,02,12,3.00
2010,10,16,02,13,3.00
2010,10,16,02,14,3.00
2010,10,16,02,15,2.90
2010,10,16,02,16,2.90
2010,10,16,02,17,2.90
2010,10,16,02,18,2.90
2010,10,16,02,19,2.90
2010,10,16,02,20,2.90
2010,10,16,02,21,2.90
2010,10,16,02,22,2.90
2010,10,16,02,23,2.90
2010,10,16,02,24,2.90
2010,10,16,02,25,2.90
2010,10,16,02,26,2.90
2010,10,16,02,27,2.90
2010,10,16,02,28,2.90
2010,10,16,02,29,2.90
2010,10,16,02,30,2.90
2010,10,16,02,31,2.90
2010,10,16,02,32,2.90
2010,10,16,02,33,2.90
2010,10,16,02,34,2.90
2010,10,16,02,35,2.90
2010,10,16,02,36,2.90
2010,10,16,02,37,2.90
2010,10,16,02,38,2.90
2010,10,16,02,39,2.90
2010,10,16,02,40,2.90
2010,10,16,02,41,2.90
2010,10,16,02,42,2.90
2010,10,16,02,43,2.90
2010,10,16,02,44,2.90
2010,10,16,02,45,2.90
2010,10,16,02,46,2.90
2010,10,16,02,47,2.90
2010,10,16,02,48,2.90
2010,10,16,02,49,2.90
2010,10,16,02,50,2.90
2010,10,16,02,51,2.90
2010,10,16,02,52,2.90
2010,10,16,02,53,2.90
2010,10,16,02,54,2.90
2010,10,16,02,55,2.90
2010,10,16,02,56,2.90
2010,10,16,02,57,3.00
2010,10,16,02,58,3.00
2010,10,16,02,59,3.00
2010,10,16,03,00,3.10
2010,10,16,03,01,3.10
2010,10,16,03,02,3.10
2010,10,16,03,03,3.10
2010,10,16,03,04,3.10
2010,10,16,03,05,3.10
2010,10,16,03,06,3.10
2010,10,16,03,07,3.10
2010,10,16,03,08,3.10
2010,10,16,03,09,3.00
2010,10,16,03,10,3.00
2010,10,16,03,11,2.90
2010,10,16,03,12,2.90
2010,10,16,03,13,2.90
2010,10,16,03,14,2.90
2010,10,16,03,15,3.00
2010,10,16,03,16,3.00
2010,10,16,03,17,3.00
2010,10,16,03,18,3.10
2010,10,16,03,19,3.10
2010,10,16,03,20,3.10
2010,10,16,03,21,3.10
2010,10,16,03,22,3.10
2010,10,16,03,23,3.10
2010,10,16,03,24,3.10
2010,10,16,03,25,3.10
2010,10,16,03,26,3.00
2010,10,16,03,27,3.00
2010,10,16,03,28,3.00
2010,10,16,03,29,2.90
2010,10,16,03,30,2.90
2010,10,16,03,31,2.90
2010,10,16,03,32,2.80
2010,10,16,03,33,2.80
2010,10,16,03,34,2.80
2010,10,16,03,35,2.90
2010,10,16,03,36,2.90
2010,10,16,03,37,2.90
2010,10,16,03,38,3.00
2010,10,16,03,39,3.10
2010,10,16,03,40,3.10
2010,10,16,03,41,3.20
2010,10,16,03,42,3.20
2010,10,16,03,43,3.20
2010,10,16,03,44,3.20
2010,10,16,03,45,3.20
2010,10,16,03,46,3.20
2010,10,16,03,47,3.20
2010,10,16,03,48,3.20
2010,10,16,03,49,3.10
2010,10,16,03,50,3.10
2010,10,16,03,51,3.10
2010,10,16,03,52,3.10
2010,10,16,03,53,3.10
2010,10,16,03,54,3.10
2010,10,16,03,55,3.10
2010,10,16,03,56,3.10
2010,10,16,03,57,3.10
2010,10,16,03,58,3.10
2010,10,16,03,59,3.20
2010,10,16,04,00,3.20
2010,10,16,04,01,3.20
2010,10,16,04,02,3.30
2010,10,16,04,03,3.30
2010,10,16,04,04,3.30
2010,10,16,04,05,3.30
2010,10,16,04,06,3.30
2010,10,16,04,07,3.20
2010,10,16,04,08,3.20
2010,10,16,04,09,3.20
2010,10,16,04,10,3.20
2010,10,16,04,11,3.20
2010,10,16,04,12,3.10
2010,10,16,04,13,3.10
2010,10,16,04,14,3.10
2010,10,16,04,15,3.10
2010,10,16,04,16,3.00
2010,10,16,04,17,3.00
2010,10,16,04,18,3.00
2010,10,16,04,19,3.00
2010,10,16,04,20,3.00
2010,10,16,04,21,3.00
2010,10,16,04,22,3.10
2010,10,16,04,23,3.10
2010,10,16,04,24,3.10
2010,10,16,04,25,3.10
2010,10,16,04,26,3.10
2010,10,16,04,27,3.10
2010,10,16,04,28,3.10
2010,10,16,04,29,3.00
2010,10,16,04,30,3.00
2010,10,16,04,31,2.90
2010,10,16,04,32,2.90
2010,10,16,04,33,2.90
2010,10,16,04,34,2.90
2010,10,16,04,35,2.90
2010,10,16,04,36,2.80
2010,10,16,04,37,2.80
2010,10,16,04,38,2.80
2010,10,16,04,39,2.80
2010,10,16,04,40,2.80
2010,10,16,04,41,2.70
2010,10,16,04,42,2.70
2010,10,16,04,43,2.70
2010,10,16,04,44,2.70
2010,10,16,04,45,2.70
2010,10,16,04,46,2.70
2010,10,16,04,47,2.70
2010,10,16,04,48,2.70
2010,10,16,04,49,2.60
2010,10,16,04,50,2.60
2010,10,16,04,51,2.60
2010,10,16,04,52,2.60
2010,10,16,04,53,2.60
2010,10,16,04,54,2.60
2010,10,16,04,55,2.60
2010,10,16,04,56,2.60
2010,10,16,04,57,2.50
2010,10,16,04,58,2.50
2010,10,16,04,59,2.50
2010,10,16,05,00,2.50
2010,10,16,05,01,2.40
2010,10,16,05,02,2.40
2010,10,16,05,03,2.40
2010,10,16,05,04,2.40
2010,10,16,05,05,2.40
2010,10,16,05,06,2.40
2010,10,16,05,07,2.40
2010,10,16,05,08,2.40
2010,10,16,05,09,2.40
2010,10,16,05,10,2.30
2010,10,16,05,11,2.30
2010,10,16,05,12,2.30
2010,10,16,05,13,2.30
2010,10,16,05,14,2.30
2010,10,16,05,15,2.20
2010,10,16,05,16,2.20
2010,10,16,05,17,2.20
2010,10,16,05,18,2.20
2010,10,16,05,19,2.20
2010,10,16,05,20,2.20
2010,10,16,05,21,2.10
2010,10,16,05,22,2.10
2010,10,16,05,23,2.10
2010,10,16,05,24,2.10
2010,10,16,05,25,2.10
2010,10,16,05,26,2.00
2010,10,16,05,27,2.00
2010,10,16,05,28,2.00
2010,10,16,05,29,1.90
2010,10,16,05,30,1.90
2010,10,16,05,31,1.90
2010,10,16,05,32,1.90
2010,10,16,05,33,1.90
2010,10,16,05,34,1.90
2010,10,16,05,35,1.90
2010,10,16,05,36,1.90
2010,10,16,05,37,1.90
2010,10,16,05,38,1.90
2010,10,16,05,39,1.90
2010,10,16,05,40,1.90
2010,10,16,05,41,1.90
2010,10,16,05,42,1.90
2010,10,16,05,43,1.90
2010,10,16,05,44,2.00
2010,10,16,05,45,1.90
2010,10,16,05,46,1.90
2010,10,16,05,47,1.90
2010,10,16,05,48,1.90
2010,10,16,05,49,1.90
2010,10,16,05,50,1.90
2010,10,16,05,51,1.90
2010,10,16,05,52,1.90
2010,10,16,05,53,1.80
2010,10,16,05,54,1.80
2010,10,16,05,55,1.80
2010,10,16,05,56,1.80
2010,10,16,05,57,1.80
2010,10,16,05,58,1.80
2010,10,16,05,59,1.80
2010,10,16,06,00,1.80
2010,10,16,06,01,1.80
2010,10,16,06,02,1.80
2010,10,16,06,03,1.80
2010,10,16,06,04,1.80
2010,10,16,06,05,1.80
2010,10,16,06,06,1.80
2010,10,16,06,07,1.80
2010,10,16,06,08,1.80
2010,10,16,06,09,1.80
2010,10,16,06,10,1.80
2010,10,16,06,11,1.80
2010,10,16,06,12,1.80
2010,10,16,06,13,1.70
2010,10,16,06,14,1.70
2010,10,16,06,15,1.70
2010,10,16,06,16,1.70
2010,10,16,06,17,1.70
2010,10,16,06,18,1.70
2010,10,16,06,19,1.70
2010,10,16,06,20,1.70
2010,10,16,06,21,1.70
2010,10,16,06,22,1.60
2010,10,16,06,23,1.60
2010,10,16,06,24,1.60
2010,10,16,06,25,1.60
2010,10,16,06,26,1.50
2010,10,16,06,27,1.50
2010,10,16,06,28,1.50
2010,10,16,06,29,1.50
2010,10,16,06,30,1.40
2010,10,16,06,31,1.40
2010,10,16,06,32,1.40
2010,10,16,06,33,1.40
2010,10,16,06,34,1.40
2010,10,16,06,35,1.40
2010,10,16,06,36,1.40
2010,10,16,06,37,1.40
2010,10,16,06,38,1.50
2010,10,16,06,39,1.50
2010,10,16,06,40,1.50
2010,10,16,06,41,1.50
2010,10,16,06,42,1.50
2010,10,16,06,43,1.50
2010,10,16,06,44,1.40
2010,10,16,06,45,1.40
2010,10,16,06,46,1.40
2010,10,16,06,47,1.40
2010,10,16,06,48,1.40
2010,10,16,06,49,1.40
2010,10,16,06,50,1.40
2010,10,16,06,51,1.40
2010,10,16,06,52,1.40
2010,10,16,06,53,1.30
2010,10,16,06,54,1.30
2010,10,16,06,55,1.30
2010,10,16,06,56,1.30
2010,10,16,06,57,1.30
2010,10,16,06,58,1.30
2010,10,16,06,59,1.30
2010,10,16,07,00,1.30
2010,10,16,07,01,1.30
2010,10,16,07,02,1.30
2010,10,16,07,03,1.30
2010,10,16,07,04,1.30
2010,10,16,07,05,1.30
2010,10,16,07,06,1.30
2010,10,16,07,07,1.30
2010,10,16,07,08,1.30
2010,10,16,07,09,1.30
2010,10,16,07,10,1.30
2010,10,16,07,11,1.30
2010,10,16,07,12,1.30
2010,10,16,07,13,1.30
2010,10,16,07,14,1.30
2010,10,16,07,15,1.30
2010,10,16,07,16,1.30
2010,10,16,07,17,1.30
2010,10,16,07,18,1.30
2010,10,16,07,19,1.30
2010,10,16,07,20,1.20
2010,10,16,07,21,1.20
2010,10,16,07,22,1.20
2010,10,16,07,23,1.20
2010,10,16,07,24,1.20
2010,10,16,07,25,1.20
2010,10,16,07,26,1.20
2010,10,16,07,27,1.20
2010,10,16,07,28,1.20
2010,10,16,07,29,1.20
2010,10,16,07,30,1.20
2010,10,16,07,31,1.20
2010,10,16,07,32,1.20
2010,10,16,07,33,1.10
2010,10,16,07,34,1.10
2010,10,16,07,35,1.10
2010,10,16,07,36,1.10
2010,10,16,07,37,1.10
2010,10,16,07,38,1.10
2010,10,16,07,39,1.10
2010,10,16,07,40,1.10
2010,10,16,07,41,1.10
2010,10,16,07,42,1.10
2010,10,16,07,43,1.10
2010,10,16,07,44,1.10
2010,10,16,07,45,1.10
2010,10,16,07,46,1.10
2010,10,16,07,47,1.10
2010,10,16,07,48,1.10
2010,10,16,07,49,1.10
2010,10,16,07,50,1.10
2010,10,16,07,51,1.10
2010,10,16,07,52,1.10
2010,10,16,07,53,1.10
2010,10,16,07,54,1.10
2010,10,16,07,55,1.00
2010,10,16,07,56,1.00
2010,10,16,07,57,1.00
2010,10,16,07,58,1.00
2010,10,16,07,59,1.00
2010,10,16,08,00,1.00
2010,10,16,08,01,1.00
2010,10,16,08,02,1.00
2010,10,16,08,03,1.10
2010,10,16,08,04,1.10
2010,10,16,08,05,1.20
2010,10,16,08,06,1.30
2010,10,16,08,07,1.30
2010,10,16,08,08,1.30
2010,10,16,08,09,1.40
2010,10,16,08,10,1.50
2010,10,16,08,11,1.50
2010,10,16,08,12,1.60
2010,10,16,08,13,1.60
2010,10,16,08,14,1.70
2010,10,16,08,15,1.70
2010,10,16,08,16,1.80
2010,10,16,08,17,1.80
2010,10,16,08,18,1.90
2010,10,16,08,19,2.00
2010,10,16,08,20,2.00
2010,10,16,08,21,2.10
2010,10,16,08,22,2.20
2010,10,16,08,23,2.20
2010,10,16,08,24,2.20
2010,10,16,08,25,2.20
2010,10,16,08,26,2.20
2010,10,16,08,27,2.20
2010,10,16,08,28,2.20
2010,10,16,08,29,2.20
2010,10,16,08,30,2.20
2010,10,16,08,31,2.20
2010,10,16,08,32,2.30
2010,10,16,08,33,2.30
2010,10,16,08,34,2.40
2010,10,16,08,35,2.40
2010,10,16,08,36,2.50
2010,10,16,08,37,2.60
2010,10,16,08,38,2.70
2010,10,16,08,39,2.80
2010,10,16,08,40,2.80
2010,10,16,08,41,2.90
2010,10,16,08,42,3.00
2010,10,16,08,43,3.00
2010,10,16,08,44,3.00
2010,10,16,08,45,3.10
2010,10,16,08,46,3.10
2010,10,16,08,47,3.20
2010,10,16,08,48,3.20
2010,10,16,08,49,3.30
2010,10,16,08,50,3.40
2010,10,16,08,51,3.50
2010,10,16,08,52,3.60
2010,10,16,08,53,3.70
2010,10,16,08,54,3.70
2010,10,16,08,55,3.70
2010,10,16,08,56,3.70
2010,10,16,08,57,3.60
2010,10,16,08,58,3.50
2010,10,16,08,59,3.40
2010,10,16,09,00,3.30
2010,10,16,09,01,3.30
2010,10,16,09,02,3.20
2010,10,16,09,03,3.20
2010,10,16,09,04,3.20
2010,10,16,09,05,3.10
2010,10,16,09,06,3.10
2010,10,16,09,07,3.00
2010,10,16,09,08,3.00
2010,10,16,09,09,2.90
2010,10,16,09,10,3.00
2010,10,16,09,11,3.00
2010,10,16,09,12,3.00
2010,10,16,09,13,3.00
2010,10,16,09,14,3.10
2010,10,16,09,15,3.10
2010,10,16,09,16,3.10
2010,10,16,09,17,3.20
2010,10,16,09,18,3.20
2010,10,16,09,19,3.20
2010,10,16,09,20,3.30
2010,10,16,09,21,3.30
2010,10,16,09,22,3.40
2010,10,16,09,23,3.50
2010,10,16,09,24,3.50
2010,10,16,09,25,3.70
2010,10,16,09,26,3.80
2010,10,16,09,27,3.90
2010,10,16,09,28,4.10
2010,10,16,09,29,4.20
2010,10,16,09,30,4.30
2010,10,16,09,31,4.40
2010,10,16,09,32,4.60
2010,10,16,09,33,4.70
2010,10,16,09,34,4.90
2010,10,16,09,35,5.10
2010,10,16,09,36,5.20
2010,10,16,09,37,5.50
2010,10,16,09,38,5.70
2010,10,16,09,39,5.80
2010,10,16,09,40,5.80
2010,10,16,09,41,5.90
2010,10,16,09,42,5.90
2010,10,16,09,43,6.00
2010,10,16,09,44,6.10
2010,10,16,09,45,6.10
2010,10,16,09,46,6.20
2010,10,16,09,47,6.40
2010,10,16,09,48,6.50
2010,10,16,09,49,6.70
2010,10,16,09,50,6.70
2010,10,16,09,51,6.80
2010,10,16,09,52,6.80
2010,10,16,09,53,6.80
2010,10,16,09,54,6.80
2010,10,16,09,55,6.80
2010,10,16,09,56,6.70
2010,10,16,09,57,6.70
2010,10,16,09,58,6.70
2010,10,16,09,59,6.80
2010,10,16,10,00,6.70
2010,10,16,10,01,6.70
2010,10,16,10,02,6.70
2010,10,16,10,03,6.60
2010,10,16,10,04,6.60
2010,10,16,10,05,6.70
2010,10,16,10,06,6.70
2010,10,16,10,07,6.80
2010,10,16,10,08,6.80
2010,10,16,10,09,6.90
2010,10,16,10,10,6.90
2010,10,16,10,11,6.90
2010,10,16,10,12,6.90
2010,10,16,10,13,6.90
2010,10,16,10,14,7.00
2010,10,16,10,15,7.10
2010,10,16,10,16,7.10
2010,10,16,10,17,7.10
2010,10,16,10,18,7.20
2010,10,16,10,19,7.20
2010,10,16,10,20,7.20
2010,10,16,10,21,7.20
2010,10,16,10,22,7.20
2010,10,16,10,23,7.30
2010,10,16,10,24,7.40
2010,10,16,10,25,7.50
2010,10,16,10,26,7.60
2010,10,16,10,27,7.70
2010,10,16,10,28,7.70
2010,10,16,10,29,7.80
2010,10,16,10,30,7.80
2010,10,16,10,31,7.90
2010,10,16,10,32,8.00
2010,10,16,10,33,8.20
2010,10,16,10,34,8.30
2010,10,16,10,35,8.30
2010,10,16,10,36,8.30
2010,10,16,10,37,8.30
2010,10,16,10,38,8.40
2010,10,16,10,39,8.50
2010,10,16,10,40,8.50
2010,10,16,10,41,8.60
2010,10,16,10,42,8.60
2010,10,16,10,43,8.60
2010,10,16,10,44,8.70
2010,10,16,10,45,8.90
2010,10,16,10,46,9.00
2010,10,16,10,47,9.20
2010,10,16,10,48,9.30
2010,10,16,10,49,9.50
2010,10,16,10,50,9.60
2010,10,16,10,51,9.80
2010,10,16,10,52,9.90
2010,10,16,10,53,10.00
2010,10,16,10,54,10.10
2010,10,16,10,55,10.10
2010,10,16,10,56,10.20
2010,10,16,10,57,10.30
2010,10,16,10,58,10.30
2010,10,16,10,59,10.30
2010,10,16,11,00,10.30
2010,10,16,11,01,10.30
2010,10,16,11,02,10.30
2010,10,16,11,03,10.30
2010,10,16,11,04,10.30
2010,10,16,11,05,10.40
2010,10,16,11,06,10.30
2010,10,16,11,07,10.40
2010,10,16,11,08,10.50
2010,10,16,11,09,10.50
2010,10,16,11,10,10.60
2010,10,16,11,11,10.70
2010,10,16,11,12,10.80
2010,10,16,11,13,10.90
2010,10,16,11,14,11.00
2010,10,16,11,15,11.00
2010,10,16,11,16,10.90
2010,10,16,11,17,10.90
2010,10,16,11,18,11.00
2010,10,16,11,19,10.90
2010,10,16,11,20,10.80
2010,10,16,11,21,10.80
2010,10,16,11,22,10.70
2010,10,16,11,23,10.70
2010,10,16,11,24,10.70
2010,10,16,11,25,10.80
2010,10,16,11,26,10.80
2010,10,16,11,27,10.90
2010,10,16,11,28,11.00
2010,10,16,11,29,11.00
2010,10,16,11,30,11.10
2010,10,16,11,31,11.20
2010,10,16,11,32,11.30
2010,10,16,11,33,11.40
2010,10,16,11,34,11.40
2010,10,16,11,35,11.40
2010,10,16,11,36,11.40
2010,10,16,11,37,11.40
2010,10,16,11,38,11.40
2010,10,16,11,39,11.50
2010,10,16,11,40,11.60
2010,10,16,11,41,11.50
2010,10,16,11,42,11.40
2010,10,16,11,43,11.40
2010,10,16,11,44,11.30
2010,10,16,11,45,11.20
2010,10,16,11,46,11.20
2010,10,16,11,47,11.20
2010,10,16,11,48,11.20
2010,10,16,11,49,11.20
2010,10,16,11,50,11.20
2010,10,16,11,51,11.20
2010,10,16,11,52,11.20
2010,10,16,11,53,11.20
2010,10,16,11,54,11.10
2010,10,16,11,55,11.10
2010,10,16,11,56,11.10
2010,10,16,11,57,11.10
2010,10,16,11,58,11.20
2010,10,16,11,59,11.20
2010,10,16,12,00,11.30
2010,10,16,12,01,11.30
2010,10,16,12,02,11.30
2010,10,16,12,03,11.30
2010,10,16,12,04,11.30
2010,10,16,12,05,11.40
2010,10,16,12,06,11.40
2010,10,16,12,07,11.40
2010,10,16,12,08,11.40
2010,10,16,12,09,11.30
2010,10,16,12,10,11.30
2010,10,16,12,11,11.30
2010,10,16,12,12,11.40
2010,10,16,12,13,11.40
2010,10,16,12,14,11.40
2010,10,16,12,15,11.40
2010,10,16,12,16,11.40
2010,10,16,12,17,11.50
2010,10,16,12,18,11.50
2010,10,16,12,19,11.40
2010,10,16,12,20,11.40
2010,10,16,12,21,11.40
2010,10,16,12,22,11.40
2010,10,16,12,23,11.40
2010,10,16,12,24,11.30
2010,10,16,12,25,11.30
2010,10,16,12,26,11.30
2010,10,16,12,27,11.30
2010,10,16,12,28,11.30
2010,10,16,12,29,11.30
2010,10,16,12,30,11.20
2010,10,16,12,31,11.10
2010,10,16,12,32,11.10
2010,10,16,12,33,11.00
2010,10,16,12,34,11.10
2010,10,16,12,35,11.10
2010,10,16,12,36,11.10
2010,10,16,12,37,11.20
2010,10,16,12,38,11.30
2010,10,16,12,39,11.40
2010,10,16,12,40,11.50
2010,10,16,12,41,11.60
2010,10,16,12,42,11.60
2010,10,16,12,43,11.70
2010,10,16,12,44,11.80
2010,10,16,12,45,11.90
2010,10,16,12,46,12.00
2010,10,16,12,47,12.10
2010,10,16,12,48,12.10
2010,10,16,12,49,12.10
2010,10,16,12,50,12.00
2010,10,16,12,51,11.90
2010,10,16,12,52,11.90
2010,10,16,12,53,11.90
2010,10,16,12,54,11.90
2010,10,16,12,55,11.80
2010,10,16,12,56,11.80
2010,10,16,12,57,11.80
2010,10,16,12,58,11.80
2010,10,16,12,59,11.80
2010,10,16,13,00,11.80
2010,10,16,13,01,11.80
2010,10,16,13,02,11.80
2010,10,16,13,03,11.70
2010,10,16,13,04,11.70
2010,10,16,13,05,11.70
2010,10,16,13,06,11.70
2010,10,16,13,07,11.70
2010,10,16,13,08,11.70
2010,10,16,13,09,11.70
2010,10,16,13,10,11.70
2010,10,16,13,11,11.70
2010,10,16,13,12,11.70
2010,10,16,13,13,11.70
2010,10,16,13,14,11.70
2010,10,16,13,15,11.80
2010,10,16,13,16,11.80
2010,10,16,13,17,11.90
2010,10,16,13,18,11.90
2010,10,16,13,19,12.00
2010,10,16,13,20,12.00
2010,10,16,13,21,12.10
2010,10,16,13,22,12.10
2010,10,16,13,23,12.10
2010,10,16,13,24,12.10
2010,10,16,13,25,12.10
2010,10,16,13,26,12.00
2010,10,16,13,27,12.00
2010,10,16,13,28,12.00
2010,10,16,13,29,11.90
2010,10,16,13,30,11.90
2010,10,16,13,31,12.00
2010,10,16,13,32,12.00
2010,10,16,13,33,12.10
2010,10,16,13,34,12.10
2010,10,16,13,35,12.10
2010,10,16,13,36,12.10
2010,10,16,13,37,12.10
2010,10,16,13,38,12.10
2010,10,16,13,39,12.10
2010,10,16,13,40,12.20
2010,10,16,13,41,12.20
2010,10,16,13,42,12.20
2010,10,16,13,43,12.30
2010,10,16,13,44,12.30
2010,10,16,13,45,12.30
2010,10,16,13,46,12.30
2010,10,16,13,47,12.30
2010,10,16,13,48,12.30
2010,10,16,13,49,12.30
2010,10,16,13,50,12.40
2010,10,16,13,51,12.40
2010,10,16,13,52,12.50
2010,10,16,13,53,12.50
2010,10,16,13,54,12.60
2010,10,16,13,55,12.60
2010,10,16,13,56,12.60
2010,10,16,13,57,12.50
2010,10,16,13,58,12.50
2010,10,16,13,59,12.50
2010,10,16,14,00,12.50
2010,10,16,14,01,12.50
2010,10,16,14,02,12.40
2010,10,16,14,03,12.50
2010,10,16,14,04,12.60
2010,10,16,14,05,12.60
2010,10,16,14,06,12.70
2010,10,16,14,07,12.80
2010,10,16,14,08,12.80
2010,10,16,14,09,12.80
2010,10,16,14,10,12.80
2010,10,16,14,11,12.80
2010,10,16,14,12,12.80
2010,10,16,14,13,12.80
2010,10,16,14,14,12.80
2010,10,16,14,15,12.80
2010,10,16,14,16,12.80
2010,10,16,14,17,12.90
2010,10,16,14,18,12.90
2010,10,16,14,19,12.90
2010,10,16,14,20,12.80
2010,10,16,14,21,12.80
2010,10,16,14,22,12.80
2010,10,16,14,23,12.90
2010,10,16,14,24,12.80
2010,10,16,14,25,12.80
2010,10,16,14,26,12.80
2010,10,16,14,27,12.70
2010,10,16,14,28,12.70
2010,10,16,14,29,12.70
2010,10,16,14,30,12.70
2010,10,16,14,31,12.80
2010,10,16,14,32,12.80
2010,10,16,14,33,12.80
2010,10,16,14,34,12.80
2010,10,16,14,35,12.80
2010,10,16,14,36,12.80
2010,10,16,14,37,12.80
2010,10,16,14,38,12.70
2010,10,16,14,39,12.50
2010,10,16,14,40,12.30
2010,10,16,14,41,12.20
2010,10,16,14,42,12.00
2010,10,16,14,43,12.00
2010,10,16,14,44,11.80
2010,10,16,14,45,11.50
2010,10,16,14,46,11.40
2010,10,16,14,47,11.40
2010,10,16,14,48,11.40
2010,10,16,14,49,11.40
2010,10,16,14,50,11.30
2010,10,16,14,51,11.20
2010,10,16,14,52,11.10
2010,10,16,14,53,11.10
2010,10,16,14,54,11.00
2010,10,16,14,55,10.90
2010,10,16,14,56,10.80
2010,10,16,14,57,10.70
2010,10,16,14,58,10.60
2010,10,16,14,59,10.60
2010,10,16,15,00,10.60
2010,10,16,15,01,10.60
2010,10,16,15,02,10.60
2010,10,16,15,03,10.60
2010,10,16,15,04,10.60
2010,10,16,15,05,10.60
2010,10,16,15,06,10.60
2010,10,16,15,07,10.60
2010,10,16,15,08,10.60
2010,10,16,15,09,10.60
2010,10,16,15,10,10.60
2010,10,16,15,11,10.60
2010,10,16,15,12,10.60
2010,10,16,15,13,10.70
2010,10,16,15,14,10.70
2010,10,16,15,15,10.70
2010,10,16,15,16,10.70
2010,10,16,15,17,10.60
2010,10,16,15,18,10.60
2010,10,16,15,19,10.60
2010,10,16,15,20,10.60
2010,10,16,15,21,10.50
2010,10,16,15,22,10.50
2010,10,16,15,23,10.60
2010,10,16,15,24,10.60
2010,10,16,15,25,10.60
2010,10,16,15,26,10.70
2010,10,16,15,27,10.60
2010,10,16,15,28,10.60
2010,10,16,15,29,10.60
2010,10,16,15,30,10.70
2010,10,16,15,31,10.70
2010,10,16,15,32,10.70
2010,10,16,15,33,10.70
2010,10,16,15,34,10.80
2010,10,16,15,35,10.80
2010,10,16,15,36,10.90
2010,10,16,15,37,10.90
2010,10,16,15,38,10.90
2010,10,16,15,39,10.80
2010,10,16,15,40,10.80
2010,10,16,15,41,10.80
2010,10,16,15,42,10.80
2010,10,16,15,43,10.80
2010,10,16,15,44,10.70
2010,10,16,15,45,10.70
2010,10,16,15,46,10.70
2010,10,16,15,47,10.70
2010,10,16,15,48,10.70
2010,10,16,15,49,10.70
2010,10,16,15,50,10.70
2010,10,16,15,51,10.70
2010,10,16,15,52,10.70
2010,10,16,15,53,10.70
2010,10,16,15,54,10.70
2010,10,16,15,55,10.70
2010,10,16,15,56,10.70
2010,10,16,15,57,10.70
2010,10,16,15,58,10.70
2010,10,16,15,59,10.70
2010,10,16,16,00,10.70
2010,10,16,16,01,10.70
2010,10,16,16,02,10.70
2010,10,16,16,03,10.60
2010,10,16,16,04,10.70
2010,10,16,16,05,10.70
2010,10,16,16,06,10.70
2010,10,16,16,07,10.60
2010,10,16,16,08,10.60
2010,10,16,16,09,10.60
2010,10,16,16,10,10.60
2010,10,16,16,11,10.60
2010,10,16,16,12,10.50
2010,10,16,16,13,10.50
2010,10,16,16,14,10.50
2010,10,16,16,15,10.50
2010,10,16,16,16,10.50
2010,10,16,16,17,10.40
2010,10,16,16,18,10.40
2010,10,16,16,19,10.40
2010,10,16,16,20,10.40
2010,10,16,16,21,10.40
2010,10,16,16,22,10.40
2010,10,16,16,23,10.40
2010,10,16,16,24,10.40
2010,10,16,16,25,10.40
2010,10,16,16,26,10.40
2010,10,16,16,27,10.40
2010,10,16,16,28,10.30
2010,10,16,16,29,10.30
2010,10,16,16,30,10.30
2010,10,16,16,31,10.30
2010,10,16,16,32,10.30
2010,10,16,16,33,10.30
2010,10,16,16,34,10.30
2010,10,16,16,35,10.30
2010,10,16,16,36,10.30
2010,10,16,16,37,10.30
2010,10,16,16,38,10.30
2010,10,16,16,39,10.40
2010,10,16,16,40,10.40
2010,10,16,16,41,10.50
2010,10,16,16,42,10.50
2010,10,16,16,43,10.60
2010,10,16,16,44,10.70
2010,10,16,16,45,10.70
2010,10,16,16,46,10.70
2010,10,16,16,47,10.80
2010,10,16,16,48,10.80
2010,10,16,16,49,10.80
2010,10,16,16,50,10.80
2010,10,16,16,51,10.80
2010,10,16,16,52,10.80
2010,10,16,16,53,10.80
2010,10,16,16,54,10.80
2010,10,16,16,55,10.80
2010,10,16,16,56,10.70
2010,10,16,16,57,10.70
2010,10,16,16,58,10.70
2010,10,16,16,59,10.70
2010,10,16,17,00,10.70
2010,10,16,17,01,10.80
2010,10,16,17,02,10.80
2010,10,16,17,03,10.80
2010,10,16,17,04,10.90
2010,10,16,17,05,10.90
2010,10,16,17,06,10.90
2010,10,16,17,07,10.90
2010,10,16,17,08,10.90
2010,10,16,17,09,10.90
2010,10,16,17,10,10.80
2010,10,16,17,11,10.80
2010,10,16,17,12,10.80
2010,10,16,17,13,10.80
2010,10,16,17,14,10.80
2010,10,16,17,15,10.80
2010,10,16,17,16,10.70
2010,10,16,17,17,10.80
2010,10,16,17,18,10.80
2010,10,16,17,19,10.70
2010,10,16,17,20,10.70
2010,10,16,17,21,10.70
2010,10,16,17,22,10.70
2010,10,16,17,23,10.70
2010,10,16,17,24,10.70
2010,10,16,17,25,10.70
2010,10,16,17,26,10.70
2010,10,16,17,27,10.70
2010,10,16,17,28,10.70
2010,10,16,17,29,10.70
2010,10,16,17,30,10.70
2010,10,16,17,31,10.70
2010,10,16,17,32,10.60
2010,10,16,17,33,10.60
2010,10,16,17,34,10.60
2010,10,16,17,35,10.60
2010,10,16,17,36,10.60
2010,10,16,17,37,10.50
2010,10,16,17,38,10.50
2010,10,16,17,39,10.40
2010,10,16,17,40,10.40
2010,10,16,17,41,10.40
2010,10,16,17,42,10.40
2010,10,16,17,43,10.40
2010,10,16,17,44,10.40
2010,10,16,17,45,10.40
2010,10,16,17,46,10.30
2010,10,16,17,47,10.30